Fryeburg, ME

5:22 AM EDT on June 27, 2017 (GMT -0400)
Eastern Slopes Regional

Weather History for KIZG - July, 2013

Change the Weather History Date:

Friday, July 19, 2013

  Actual Average Record
Temperature  
Mean Temperature 82 °F -  
Max Temperature 93 °F 78 °F 93 °F (2013)
Min Temperature 71 °F 53 °F 45 °F (2000)
Cooling Degree Days 17    
Growing Degree Days 32 (Base 50)    
Moisture  
Dew Point 70 °F    
Average Humidity 76    
Maximum Humidity 100    
Minimum Humidity 48    
Precipitation  
Precipitation 0.07 in - - ()
Sea Level Pressure  
Sea Level Pressure 29.80 in    
Wind  
Wind Speed 3 mph (SW)    
Max Wind Speed 14 mph    
Max Gust Speed 28 mph    
Visibility 10 miles    
Events Rain    
Averages and records for this station are not official NWS values.
T = Trace of Precipitation, MM = Missing Value Source: NWS Daily Summary

Daily Weather History Graph

Daily Weather History Graph

Search for Another Location

Airport or City:

Trip Planner

Search our weather history database for the weather conditions in past years. The results will help you decide how hot, cold, wet, or windy it might be!

Date:

Astronomy

Jul. 19, 2013 Rise Set
Actual Time 5:18 AM EDT 8:20 PM EDT
Civil Twilight 4:44 AM EDT 8:55 PM EDT
Nautical Twilight 4:00 AM EDT 9:39 PM EDT
Astronomical Twilight 3:07 AM EDT 10:31 PM EDT
Moon 5:19 PM EDT (7/19) 1:57 AM EDT (7/19)
Length of Visible Light 16h 10m
Length of Day
15h 02m
Waxing Gibbous, 86% of the Moon is Illuminated
Jul 19
Waxing Gibbous
Jul 22
Full
Jul 29
Last Quarter
Aug 6
New
Aug 14
First Quarter

Hourly Weather History & Observations

Time (EDT) Temp. Heat Index Dew Point Humidity Pressure Visibility Wind Dir Wind Speed Gust Speed Precip Events Conditions
12:32 AM 71.6 °F - 71.6 °F 100% 29.95 in 10.0 mi Calm Calm - 0.01 in Rain Light Rain
12:44 AM 71.6 °F - 71.6 °F 100% 29.95 in 10.0 mi South 3.5 mph - 0.01 in   Mostly Cloudy
12:54 AM 72.0 °F - 71.1 °F 97% 29.94 in 10.0 mi Calm Calm - 0.01 in   Overcast
1:16 AM 71.6 °F - 71.6 °F 100% 29.94 in 10.0 mi SSW 3.5 mph - N/A   Scattered Clouds
1:54 AM 71.1 °F - 70.0 °F 96% 29.93 in 10.0 mi Calm Calm - N/A   Scattered Clouds
2:54 AM 71.1 °F - 70.0 °F 96% 29.92 in 9.0 mi Calm Calm - N/A   Partly Cloudy
3:54 AM 71.1 °F - 70.0 °F 96% 29.90 in 10.0 mi Calm Calm - N/A   Clear
4:01 AM 71.6 °F - 69.8 °F 94% 29.89 in 10.0 mi Calm Calm - N/A   Scattered Clouds
4:52 AM 71.6 °F - 69.8 °F 94% 29.88 in 10.0 mi Calm Calm - N/A   Mostly Cloudy
4:54 AM 71.1 °F - 69.1 °F 93% 29.87 in 10.0 mi Calm Calm - N/A   Mostly Cloudy
5:03 AM 71.6 °F - 69.8 °F 94% 29.88 in 10.0 mi Calm Calm - N/A   Scattered Clouds
5:54 AM 71.1 °F - 70.0 °F 96% 29.87 in 10.0 mi South 3.5 mph - N/A   Partly Cloudy
6:54 AM 73.0 °F - 71.1 °F 93% 29.86 in 10.0 mi Calm Calm - N/A   Clear
7:54 AM 75.9 °F - 72.0 °F 87% 29.85 in 10.0 mi Calm Calm - N/A   Clear
8:54 AM 79.0 °F - 72.0 °F 79% 29.84 in 10.0 mi Variable 4.6 mph - N/A   Clear
9:54 AM 82.9 °F 88.0 °F 72.0 °F 69% 29.82 in 10.0 mi WSW 8.1 mph 16.1 mph N/A   Clear
10:54 AM 82.9 °F 88.0 °F 72.0 °F 69% 29.80 in 10.0 mi WSW 10.4 mph 17.3 mph N/A   Clear
11:54 AM 84.0 °F 89.6 °F 72.0 °F 67% 29.78 in 10.0 mi SW 12.7 mph 21.9 mph N/A   Clear
12:54 PM 88.0 °F 95.6 °F 73.0 °F 61% 29.75 in 10.0 mi WSW 5.8 mph 16.1 mph N/A   Clear
1:54 PM 91.0 °F 99.3 °F 73.0 °F 55% 29.73 in 10.0 mi SW 12.7 mph 20.7 mph N/A   Clear
2:54 PM 91.9 °F 97.4 °F 70.0 °F 48% 29.69 in 10.0 mi WSW 11.5 mph 25.3 mph N/A   Clear
3:54 PM 93.0 °F 100.1 °F 71.1 °F 49% 29.67 in 10.0 mi SW 11.5 mph 18.4 mph N/A   Clear
4:54 PM 91.9 °F 97.4 °F 70.0 °F 48% 29.66 in 10.0 mi WSW 8.1 mph 17.3 mph N/A   Clear
5:54 PM 91.0 °F 96.6 °F 70.0 °F 50% 29.66 in 10.0 mi SW 9.2 mph - N/A   Clear
6:54 PM 89.1 °F 93.7 °F 69.1 °F 52% 29.65 in 10.0 mi SSW 8.1 mph - N/A   Clear
7:54 PM 88.0 °F 91.4 °F 68.0 °F 51% 29.66 in 10.0 mi WSW 8.1 mph - N/A   Clear
8:54 PM 87.1 °F 90.6 °F 68.0 °F 53% 29.66 in 10.0 mi SW 5.8 mph - N/A   Clear
9:54 PM 84.0 °F 85.4 °F 64.0 °F 51% 29.71 in 10.0 mi NW 13.8 mph 25.3 mph N/A   Mostly Cloudy
10:05 PM 78.8 °F - 64.4 °F 61% 29.72 in 9.0 mi WNW 11.5 mph 27.6 mph 0.05 in Rain Light Rain
10:54 PM 72.0 °F - 68.0 °F 87% 29.70 in 10.0 mi SW 4.6 mph - 0.06 in   Clear
11:54 PM 73.0 °F - 68.0 °F 84% 29.70 in 10.0 mi Calm Calm - N/A   Clear